When you browse on this site, cookies collect data to enhance your experience and personalize the content and advertising you see.
Visit our Privacy Policy to learn more. By continuing to use the site, you agree to this use of cookies and data.
  • In Austria
  • List of Countries
  • For 7 days
  • Water Temperature
  • Satellite Maps
  • Weather Map
  • News
  • Weather Widgets
  • user-avatar
    Login

    Hourly Weather Salzburg

    Today, 18 November, Sunday

    Time Temperature Precipitation Wind Pressure Humidity
    00:00 -6°C° 0 mm 1 mps 628 mmHg 72%
    01:00 -7°C° 0 mm 2 mps 628 mmHg 71%
    02:00 -7°C° 0 mm 2 mps 628 mmHg 70%
    03:00 -7°C° 0 mm 2 mps 627 mmHg 68%
    04:00 -6°C° 0 mm 1 mps 627 mmHg 66%
    05:00 -6°C° 0 mm 1 mps 627 mmHg 67%
    06:00 -6°C° 0 mm 1 mps 626 mmHg 67%
    07:00 -6°C° 0 mm 1 mps 626 mmHg 67%
    08:00 -4°C° 0 mm 1 mps 626 mmHg 63%
    09:00 -2°C° 0 mm 1 mps 626 mmHg 58%
    10:00 0°C° 0 mm 1 mps 627 mmHg 53%
    11:00 -2°C° 0 mm 2 mps 627 mmHg 52%
    12:00 -1°C° 0 mm 2 mps 626 mmHg 51%
    13:00 +1°C° 0 mm 2 mps 626 mmHg 50%
    14:00 -2°C° 0 mm 2 mps 625 mmHg 57%
    15:00 -1°C° 0 mm 1 mps 624 mmHg 64%
    16:00 -2°C° 0 mm 1 mps 623 mmHg 71%
    17:00 -3°C° 0 mm 1 mps 623 mmHg 76%
    18:00 -4°C° 0 mm 1 mps 622 mmHg 82%
    19:00 -6°C° 0 mm 1 mps 622 mmHg 88%
    20:00 -6°C° 0.2 mm 1 mps 622 mmHg 88%
    21:00 -6°C° 0.2 mm 1 mps 622 mmHg 89%
    22:00 -6°C° 0.2 mm 1 mps 622 mmHg 89%
    23:00 -6°C° 0.2 mm 1 mps 622 mmHg 90%

    Tomorrow, 19 November, Monday

    Time Temperature Precipitation Wind Pressure Humidity
    00:00 -6°C° 0.2 mm 1 mps 621 mmHg 91%
    01:00 -6°C° 0.2 mm 1 mps 621 mmHg 92%
    02:00 -6°C° 0.2 mm 1 mps 621 mmHg 92%
    03:00 -6°C° 0.2 mm 1 mps 620 mmHg 91%
    04:00 -6°C° 0.2 mm 1 mps 620 mmHg 91%
    05:00 -7°C° 0.1 mm 1 mps 620 mmHg 91%
    06:00 -7°C° 0.1 mm 1 mps 619 mmHg 91%
    07:00 -7°C° 0.1 mm 1 mps 619 mmHg 92%
    08:00 -6°C° 0 mm 1 mps 619 mmHg 86%
    09:00 -4°C° 0 mm 1 mps 620 mmHg 80%
    10:00 -6°C° 0 mm 2 mps 620 mmHg 74%
    11:00 -5°C° 0 mm 2 mps 620 mmHg 69%
    12:00 -4°C° 0 mm 2 mps 620 mmHg 64%
    13:00 -3°C° 0 mm 2 mps 620 mmHg 59%
    14:00 -4°C° 0 mm 2 mps 619 mmHg 63%
    15:00 -5°C° 0 mm 2 mps 619 mmHg 66%
    16:00 -6°C° 0 mm 2 mps 619 mmHg 70%
    17:00 -6°C° 0 mm 2 mps 619 mmHg 74%
    18:00 -7°C° 0 mm 2 mps 618 mmHg 77%
    19:00 -8°C° 0 mm 2 mps 618 mmHg 81%
    20:00 -8°C° 0 mm 2 mps 618 mmHg 80%
    21:00 -8°C° 0 mm 2 mps 618 mmHg 79%
    22:00 -8°C° 0 mm 2 mps 618 mmHg 78%
    23:00 -8°C° 0 mm 2 mps 618 mmHg 76%

    Day after tomorrow, 20 November, Tuesday

    Time Temperature Precipitation Wind Pressure Humidity
    00:00 -7°C° 0 mm 2 mps 618 mmHg 74%
    01:00 -7°C° 0 mm 2 mps 617 mmHg 73%
    02:00 -7°C° 0.1 mm 2 mps 617 mmHg 73%
    03:00 -6°C° 0.1 mm 2 mps 617 mmHg 74%
    04:00 -6°C° 0.1 mm 2 mps 616 mmHg 75%
    05:00 -6°C° 0.3 mm 2 mps 616 mmHg 76%
    06:00 -6°C° 0.3 mm 2 mps 616 mmHg 78%
    07:00 -5°C° 0.3 mm 2 mps 615 mmHg 79%
    08:00 -4°C° 0.1 mm 2 mps 616 mmHg 77%
    09:00 -3°C° 0.1 mm 2 mps 616 mmHg 74%
    10:00 -2°C° 0.1 mm 3 mps 616 mmHg 72%
    11:00 -2°C° 0.2 mm 2 mps 616 mmHg 72%
    12:00 -1°C° 0.2 mm 2 mps 616 mmHg 73%
    13:00 -1°C° 0.2 mm 2 mps 616 mmHg 73%
    14:00 -1°C° 0 mm 2 mps 616 mmHg 77%
    15:00 -2°C° 0 mm 2 mps 616 mmHg 82%
    16:00 -3°C° 0 mm 2 mps 616 mmHg 86%
    17:00 -1°C° 0 mm 1 mps 616 mmHg 88%
    18:00 -2°C° 0 mm 1 mps 616 mmHg 90%
    19:00 -3°C° 0 mm 1 mps 616 mmHg 92%
    20:00 -3°C° 0 mm 1 mps 616 mmHg 92%
    21:00 -3°C° 0 mm 1 mps 616 mmHg 92%
    22:00 -3°C° 0 mm 1 mps 617 mmHg 92%
    23:00 -3°C° 0 mm 1 mps 617 mmHg 92%

    21 November, Wednesday

    Time Temperature Precipitation Wind Pressure Humidity
    00:00 -3°C° 0 mm 1 mps 617 mmHg 92%
    01:00 -3°C° 0 mm 1 mps 617 mmHg 92%
    02:00 -3°C° 0 mm 1 mps 617 mmHg 92%
    03:00 -3°C° 0 mm 1 mps 617 mmHg 92%
    04:00 -3°C° 0 mm 1 mps 618 mmHg 92%
    05:00 -3°C° 0 mm 1 mps 618 mmHg 92%
    06:00 -3°C° 0 mm 1 mps 618 mmHg 92%
    07:00 -3°C° 0 mm 1 mps 618 mmHg 93%
    08:00 -1°C° 0 mm 1 mps 619 mmHg 88%
    09:00 +1°C° 0 mm 1 mps 620 mmHg 83%
    10:00 +2°C° 0 mm 1 mps 620 mmHg 79%
    11:00 +3°C° 0 mm 1 mps 620 mmHg 77%
    12:00 +3°C° 0 mm 2 mps 620 mmHg 76%
    13:00 +4°C° 0 mm 2 mps 621 mmHg 74%
    14:00 +3°C° 0 mm 2 mps 620 mmHg 80%
    15:00 +1°C° 0 mm 2 mps 620 mmHg 86%
    16:00 -1°C° 0 mm 2 mps 619 mmHg 92%
    17:00 -1°C° 0 mm 2 mps 619 mmHg 92%
    18:00 -2°C° 0 mm 2 mps 619 mmHg 93%
    19:00 -3°C° 0 mm 2 mps 619 mmHg 94%
    20:00 -3°C° 0 mm 2 mps 620 mmHg 93%
    21:00 -3°C° 0 mm 2 mps 620 mmHg 93%
    22:00 -4°C° 0 mm 2 mps 620 mmHg 93%
    23:00 -2°C° 0 mm 1 mps 620 mmHg 93%

    22 November, Thursday

    Time Temperature Precipitation Wind Pressure Humidity
    00:00 -2°C° 0 mm 1 mps 620 mmHg 93%
    01:00 -2°C° 0 mm 1 mps 620 mmHg 94%
    02:00 -2°C° 0 mm 1 mps 620 mmHg 94%
    03:00 -3°C° 0 mm 1 mps 620 mmHg 94%
    04:00 -3°C° 0 mm 1 mps 621 mmHg 94%
    05:00 -3°C° 0 mm 1 mps 621 mmHg 93%
    06:00 -3°C° 0 mm 1 mps 621 mmHg 93%
    07:00 -2°C° 0 mm 1 mps 621 mmHg 93%
    08:00 -1°C° 0 mm 1 mps 622 mmHg 88%
    09:00 0°C° 0 mm 1 mps 623 mmHg 83%
    10:00 +2°C° 0 mm 1 mps 624 mmHg 78%
    11:00 +3°C° 0 mm 1 mps 624 mmHg 76%
    12:00 +3°C° 0 mm 1 mps 624 mmHg 74%
    13:00 +4°C° 0 mm 1 mps 624 mmHg 72%
    14:00 +3°C° 0 mm 1 mps 624 mmHg 78%
    15:00 +2°C° 0 mm 1 mps 624 mmHg 84%
    16:00 +1°C° 0 mm 1 mps 624 mmHg 89%
    17:00 0°C° 0 mm 1 mps 624 mmHg 91%
    18:00 -1°C° 0 mm 1 mps 624 mmHg 92%
    19:00 -1°C° 0 mm 1 mps 624 mmHg 94%
    20:00 -2°C° 0 mm 1 mps 624 mmHg 93%
    21:00 -2°C° 0 mm 1 mps 625 mmHg 93%
    22:00 -2°C° 0 mm 1 mps 625 mmHg 92%
    23:00 -2°C° 0 mm 1 mps 625 mmHg 92%

    23 November, Friday

    Time Temperature Precipitation Wind Pressure Humidity
    00:00 -3°C° 0 mm 1 mps 625 mmHg 91%
    01:00 -3°C° 0 mm 1 mps 625 mmHg 91%
    02:00 -3°C° 0 mm 1 mps 625 mmHg 91%
    03:00 -3°C° 0 mm 1 mps 625 mmHg 90%
    04:00 -3°C° 0 mm 1 mps 625 mmHg 90%
    05:00 -3°C° 0 mm 1 mps 625 mmHg 89%
    06:00 -3°C° 0 mm 1 mps 625 mmHg 89%
    07:00 -3°C° 0 mm 1 mps 625 mmHg 88%
    08:00 -2°C° 0 mm 1 mps 626 mmHg 82%
    09:00 0°C° 0 mm 1 mps 627 mmHg 77%
    10:00 +1°C° 0 mm 1 mps 628 mmHg 72%
    11:00 +2°C° 0 mm 1 mps 628 mmHg 71%
    12:00 +3°C° 0 mm 1 mps 628 mmHg 70%
    13:00 +4°C° 0 mm 1 mps 628 mmHg 68%
    14:00 +3°C° 0.1 mm 1 mps 627 mmHg 75%
    15:00 +2°C° 0.1 mm 1 mps 627 mmHg 81%
    16:00 0°C° 0.1 mm 1 mps 627 mmHg 88%
    17:00 0°C° 0 mm 1 mps 627 mmHg 89%
    18:00 -1°C° 0 mm 1 mps 627 mmHg 90%
    19:00 -1°C° 0 mm 1 mps 627 mmHg 91%
    20:00 -2°C° 0 mm 1 mps 627 mmHg 91%
    21:00 -2°C° 0 mm 1 mps 627 mmHg 90%
    22:00 -2°C° 0 mm 1 mps 627 mmHg 89%
    23:00 -2°C° 0 mm 1 mps 627 mmHg 89%
    Show more